{"data":{"norad_id":40746,"epoch":"2026-05-25T02:51:50.373792Z","epoch_age_seconds":71572,"freshness":"FRESH","line1":"1 40746U 15036A   26145.11933303  .00000015  00000+0  00000+0 0  9991","line2":"2 40746   0.0095  72.2227 0000356  71.2209 317.2353  1.00271627 39646","mean_motion":1.00271627,"eccentricity":3.56e-5,"inclination_deg":0.0095,"raan_deg":72.2227,"arg_perigee_deg":71.2209,"mean_anomaly_deg":317.2353,"bstar":0,"rev_number":3964,"period_min":1436.0991669159,"perigee_km":35785.13818835,"apogee_km":35788.140320419,"semimajor_km":42164.776254384,"source":"CELESTRAK","updated_at":"2026-05-25T13:38:13.990471Z"}}